Weather History for Puebla, Mexico

Change the Weather History Date:

Tuesday, October 15, 2013

  Actual Average Record
Temperature  
Mean Temperature 61 °F -  
Max Temperature 76 °F 69 °F 76 °F (2013)
Min Temperature 46 °F 50 °F 39 °F (2012)
Degree Days  
Heating Degree Days 4    
Growing Degree Days 11 (Base 50)    
Moisture  
Dew Point 48 °F    
Average Humidity 62    
Maximum Humidity 94    
Minimum Humidity 19    
Precipitation  
Precipitation 0.00 in - - ()
Sea Level Pressure  
Sea Level Pressure 30.14 in    
Wind  
Wind Speed 4 mph ()    
Max Wind Speed 13 mph    
Max Gust Speed -    
Visibility 8.6 miles    
Events      
Averages and records for this station are not official NWS values.
T = Trace of Precipitation, MM = Missing Value Source: Averaged Metar Reports

Daily Weather History Graph

Daily Weather History Graph

Search for Another Location

Airport:

Trip Planner

Search our weather history database for the weather conditions in past years. The results will help you decide how hot, cold, wet, or windy it might be!

Date:

Astronomy

Oct. 15, 2013 Rise Set
Actual Time 7:27 AM CDT 7:10 PM CDT
Civil Twilight 7:05 AM CDT 7:32 PM CDT
Nautical Twilight 6:40 AM CDT 7:57 PM CDT
Astronomical Twilight 6:14 AM CDT 8:23 PM CDT
Moon 4:54 PM CDT (10/15) 4:18 AM CDT (10/15)
Length of Visible Light 12h 26m
Length of Day
11h 42m
Waxing Gibbous, 88% of the Moon is Illuminated
Oct 15
Waxing Gibbous
Oct 18
Full
Oct 26
Last Quarter
Nov 3
New
Nov 9
First Quarter

Hourly Weather History & Observations

Time (CDT) Temp. Windchill Dew Point Humidity Pressure Visibility Wind Dir Wind Speed Gust Speed Precip Events Conditions
12:50 AM 58 °F - 50 °F 68% 29.77 in 3 mi Calm Calm - -  
3:50 AM 55 °F - 51 °F 81% 29.81 in 3 mi Calm Calm - -  
6:05 AM 48.2 °F - 44.6 °F 87% 30.30 in 10.0 mi Calm Calm - N/A   Clear
6:50 AM 51 °F - 47 °F 83% 29.90 in 3 mi Calm Calm - -  
6:50 AM 46.4 °F 44.3 °F 44.6 °F 93% 30.31 in 20.0 mi NNW 4.6 mph - N/A   Clear
7:49 AM 48.2 °F - 44.6 °F 87% 30.32 in 10.0 mi NNW 5.8 mph - N/A   Clear
8:46 AM 53.6 °F - 48.2 °F 82% 30.32 in 10.0 mi North 5.8 mph - N/A   Clear
9:40 AM 59.0 °F - 48.2 °F 67% 30.34 in 10.0 mi NE 5.8 mph - N/A   Clear
9:50 AM 60 °F - 46 °F 50% 29.96 in 3 mi SSE 2.2 mph - -   Haze
10:51 AM 68.0 °F - 44.6 °F 43% 30.35 in 8.0 mi NNE 6.9 mph - N/A   Clear
11:47 AM 69.8 °F - 39.2 °F 33% 30.33 in 10.0 mi NNE 6.9 mph - N/A   Scattered Clouds
12:42 PM 71.6 °F - 37.4 °F 29% 30.30 in 10.0 mi North 9.2 mph - N/A   Scattered Clouds
12:50 PM 72 °F - 39 °F 19% 29.90 in 12 mi North 2.2 mph - -   Clear
1:48 PM 73.4 °F - 41.0 °F 31% 30.27 in 10.0 mi South 11.5 mph - N/A   Scattered Clouds
2:54 PM 71.6 °F - 50.0 °F 46% 30.26 in 8.0 mi South 8.1 mph - N/A   Mostly Cloudy
3:40 PM 73 °F - 40 °F 20% 29.75 in 12 mi SE 2.2 mph - -   Scattered Clouds
3:51 PM 71.6 °F - 50.0 °F 46% 30.23 in 8.0 mi SSE 8.1 mph - N/A   Mostly Cloudy
4:48 PM 68.0 °F - 53.6 °F 60% 30.23 in 8.0 mi South 10.4 mph - N/A   Mostly Cloudy
5:43 PM 66.2 °F - 55.4 °F 68% 30.24 in 8.0 mi South 12.7 mph - N/A   Mostly Cloudy
6:40 PM 67 °F - 46 °F 36% 29.72 in 12 mi SSE 2.2 mph - -   Clear
6:52 PM 62.6 °F - 55.4 °F 77% 30.26 in 8.0 mi South 12.7 mph - N/A   Mostly Cloudy
7:48 PM 59.0 °F - 55.4 °F 88% 30.28 in 8.0 mi South 6.9 mph - N/A   Scattered Clouds
8:48 PM 55.4 °F - 53.6 °F 94% 30.30 in 8.0 mi SSE 4.6 mph - N/A   Partly Cloudy
9:45 PM 55.4 °F - 53.6 °F 94% 30.33 in 10.0 mi Calm Calm - N/A   Partly Cloudy
9:50 PM 61 °F - 52 °F 65% 29.76 in 3 mi Calm Calm - -